Погода в Черняховске

Россия / Калининградская область     54°37′50″N   21°49′10″E
темп.,
°C
ветер,
м/с
пор.,
м/с
влажн.,
%
обл.,
%
осадки,
мм/ч
давл.,
гПа
погр.,
м
24 февраля, ср
ср2423:00+2зюз3692100 0.0 1030115
02:00+3зюз3695100 0.1 1031127
05:00+2зюз3499100 0.0 103070
08:00+2юз23100100 0.0 103154
11:00+3ююз44100100 0.0 103085
14:00+5юз48100100 0.0 1030185
17:00+5юз49100100 0.0 1028161
20:00+5юз49100100 0.0 1028158
25 февраля, чт
чт2523:00+5юз5109996 0.0 1028223
02:00+4зюз4109684 0.0 1028181
05:00+4зюз5109579 0.0 1026195
08:00+5зюз499685 0.0 1027197
11:00+8юз599255 0.0 1026267
14:00+13юз597936 0.0 1025438
17:00+10юз410870 0.0 1023255
20:00+8юз511930 0.0 1023272
26 февраля, пт
пт2623:00+8зюз5129256 0.0 1021369
02:00+7зюз5149331 0.0 1021527
05:00+7з7148961 0.0 1020723
08:00+5з6148875 0.0 1021635
11:00+6з71277100 0.0 1021958
14:00+7з8147494 0.0 10201224
17:00+5з8137898 0.0 10191096
20:00+4з6148794 0.0 1019669
27 февраля, сб
сб2723:00+4з6159062 0.0 1018601
02:00+4зсз6128780 0.1 1019524
05:00+3сз6138742 0.0 1019535
08:00+2сз6148921 0.0 1021546
11:00+4сз712740 0.0 1023711
14:00+6сз812650 0.0 1025809
17:00+4сз610700 0.0 1027650
20:00+1сз47890 0.0 1029193
28 февраля, вс
вс2823:000сз37910 0.0 1030184
02:000зсз38950 0.0 1031210
05:000зсз379520 0.0 1031175
08:00+1з389256 0.0 1031252
11:00+5зсз596887 0.0 1031672
14:00+6сз696278 0.0 1031730
17:00+4зсз487141 0.0 1030439
20:00+1зсз389121 0.0 1031242